Home > Weather > Trieste > Past weeks

Flag for Italy Past Weather in Trieste, Italy — Yesterday and Last 2 Weeks

Now
75 °F

Partly sunny.


Feels Like: 77 °F
Forecast: 69 / 83 °F
Wind: 10 mph from Northeast

Location: Trieste

Current Time: Jun 26, 2016 at 6:43:18 AM

Latest Report: Jun 26, 2016 at 6:00 AM


Visibility: 6 mi

Pressure: 29.84 "Hg

Humidity: 65%

Dew Point: 63 °F

Location of TriesteLocation

Past Weather in Trieste — Graph

°F

Trieste Temperature Yesterday

Maximum temperature yesterday: 87 °F (at 3:00 PM)
Minimum temperature yesterday: 79 °F (at 10:00 PM)
Average temperature yesterday: 83 °F

High & Low Weather Summary for the Past Weeks

 TemperatureHumidityPressure
High92 °F (Jun 24, 12:00 PM)95% (Jun 12, 5:00 AM)30.17 "Hg (Jun 12, 5:00 AM)
Low59 °F (Jun 20, 6:00 AM)41% (Jun 22, 5:00 PM)29.50 "Hg (Jun 15, 3:00 AM)
Average74 °F69%29.88 "Hg
* Reported Jun 11 5:00 AM — Jun 26 5:00 AM, Trieste, Weather by CustomWeather, © 2016

Note: Actual official high and low records may vary slightly from our data, if they occured in-between our weather recording intervals... More about our weather records

Advertising

Trieste Weather History for the Previous 24 Hours

Scroll right to see more
 ConditionsComfort  
Time TempWeatherWind HumidityBarometerVisibility
5:00 AM
Sun, Jun 26
76 °FPassing clouds.12 mph64%29.83 "Hg6 mi
4:00 AM77 °FPassing clouds.9 mph62%29.83 "Hg6 mi
3:00 AM77 °FPassing clouds.9 mph63%29.83 "Hg6 mi
2:00 AM77 °FPassing clouds.9 mph67%29.83 "Hg6 mi
1:00 AM78 °FPassing clouds.5 mph68%29.84 "Hg6 mi
12:00 AM80 °FPassing clouds.6 mph70%29.85 "Hg6 mi
11:00 PM
Sat, Jun 25
80 °FPassing clouds.N/A87%29.84 "Hg6 mi
10:00 PM79 °FPassing clouds.1 mph80%29.81 "Hg6 mi
9:00 PM81 °FPassing clouds.No wind82%29.80 "Hg12 mi
8:00 PM83 °FPartly sunny.No wind80%29.80 "Hg12 mi
7:00 PM85 °FScattered clouds.No wind76%29.80 "Hg6 mi
6:00 PM87 °FScattered clouds.1 mph75%29.78 "Hg6 mi
5:00 PM83 °FPartly sunny.No wind79%29.80 "Hg6 mi
4:00 PM86 °FPartly sunny.No wind80%29.82 "Hg6 mi
3:00 PM87 °FPartly sunny.No wind62%29.82 "Hg6 mi
2:00 PM86 °FPartly sunny.No wind69%29.83 "Hg6 mi
1:00 PM87 °FScattered clouds.1 mph75%29.85 "Hg12 mi
12:00 PM85 °FScattered clouds.No wind79%29.85 "Hg12 mi
11:00 AM85 °FSunny.No wind74%29.85 "Hg12 mi
10:00 AM86 °FSunny.No wind69%29.85 "Hg12 mi
9:00 AM86 °FSunny.3 mph66%29.85 "Hg12 mi
8:00 AM82 °FSunny.7 mph69%29.84 "Hg12 mi
7:00 AM81 °FSunny.8 mph72%29.84 "Hg12 mi
6:00 AM81 °FSunny.7 mph72%29.85 "Hg12 mi
Weather by CustomWeather, © 2016

See weather overviewHow to use our weather pages